Weather History for KNEW - August, 2014

Change the Weather History Date:

Sunday, August 3, 2014

  Actual Average Record
Temperature  
Mean Temperature 86 °F 83 °F  
Max Temperature 95 °F 92 °F 97 °F (1978)
Min Temperature 76 °F 75 °F 69 °F (1974)
Degree Days  
Heating Degree Days 0 0  
Month to date heating degree days 0 0  
Since 1 June heating degree days 0 0  
Since 1 July heating degree days 0 0  
Cooling Degree Days 21 18  
Month to date cooling degree days 59 54  
Year to date cooling degree days 1636 1734  
Since 1 June cooling degree days 1113 1115  
Growing Degree Days 34 (Base 50)    
Moisture  
Dew Point 72 °F    
Average Humidity 66    
Maximum Humidity 85    
Minimum Humidity 46    
Precipitation  
Precipitation T in 0.20 in 3.33 in (1984)
Month to date precipitation 0.03 0.59  
Year to date precipitation 37.49 38.82  
Snow  
Snow 0.00 in - - ()
Month to date snowfall 0.0  
Since 1 June snowfall 0.0  
Since 1 July snowfall 0.0  
Snow Depth 0.00 in    
Sea Level Pressure  
Sea Level Pressure 29.97 in    
Wind  
Wind Speed 6 mph (ENE)    
Max Wind Speed 22 mph    
Max Gust Speed 30 mph    
Visibility 8 miles    
Events      
T = Trace of Precipitation, MM = Missing Value Source: NWS Daily Summary

Daily Weather History Graph

Daily Weather History Graph

Search for Another Location

Airport or City:

Trip Planner

Search our weather history database for the weather conditions in past years. The results will help you decide how hot, cold, wet, or windy it might be!

Date:

Astronomy

Aug. 03, 2014 Rise Set
Actual Time 6:20 AM CDT 7:51 PM CDT
Civil Twilight 5:54 AM CDT 8:17 PM CDT
Nautical Twilight 5:23 AM CDT 8:48 PM CDT
Astronomical Twilight 4:51 AM CDT 9:20 PM CDT
Moon 1:06 PM CDT No Moon Set
Length of Visible Light 14h 23m
Length of Day
13h 31m
Waxing Crescent, 47% of the Moon is Illuminated
Aug 3
Waxing Crescent
Aug 3
First Quarter
Aug 10
Full
Aug 17
Last Quarter
Aug 25
New

Hourly Weather History & Observations

Time (CDT) Temp. Heat Index Dew Point Humidity Pressure Visibility Wind Dir Wind Speed Gust Speed Precip Events Conditions
12:53 AM 80.1 °F 84.2 °F 73.0 °F 79% 29.96 in 9.0 mi South 4.6 mph - N/A   Overcast
1:53 AM 80.1 °F 84.2 °F 73.0 °F 79% 29.96 in 9.0 mi SSE 3.5 mph - N/A   Overcast
2:53 AM 80.6 °F 85.4 °F 73.4 °F 79% 29.98 in 9.0 mi SSE 3.5 mph - N/A   Overcast
3:53 AM 79.0 °F - 73.0 °F 82% 29.96 in 8.0 mi SE 4.6 mph - N/A   Clear
4:53 AM 79.0 °F - 73.0 °F 82% 29.96 in 8.0 mi Calm Calm - N/A   Clear
5:53 AM 78.1 °F - 73.0 °F 84% 29.96 in 8.0 mi ESE 3.5 mph - N/A   Clear
6:53 AM 81.0 °F 86.7 °F 75.0 °F 82% 29.99 in 6.0 mi NE 6.9 mph - N/A   Haze
7:53 AM 82.0 °F 89.4 °F 75.9 °F 82% 30.00 in 7.0 mi ENE 10.4 mph - N/A   Clear
8:53 AM 82.9 °F 90.8 °F 75.9 °F 79% 30.00 in 7.0 mi ENE 9.2 mph - N/A   Clear
9:53 AM 82.9 °F 89.4 °F 73.9 °F 74% 30.01 in 7.0 mi NE 5.8 mph - N/A   Clear
10:53 AM 84.0 °F 91.2 °F 73.9 °F 72% 30.00 in 8.0 mi NNE 6.9 mph - N/A   Clear
11:53 AM 84.9 °F 90.7 °F 72.0 °F 65% 30.00 in 7.0 mi NNE 5.8 mph - N/A   Clear
12:53 PM 87.1 °F 92.8 °F 71.1 °F 59% 29.99 in 8.0 mi North 4.6 mph - N/A   Clear
1:53 PM 88.0 °F 92.9 °F 70.0 °F 55% 29.97 in 9.0 mi NNE 6.9 mph - N/A   Clear
2:53 PM 89.1 °F 95.0 °F 71.1 °F 55% 29.95 in 8.0 mi NNE 4.6 mph - N/A   Clear
3:53 PM 90.0 °F 96.9 °F 72.0 °F 55% 29.94 in 6.0 mi North 5.8 mph - N/A   Haze
4:53 PM 89.1 °F 96.0 °F 72.0 °F 57% 29.93 in 6.0 mi ENE 4.6 mph - N/A   Haze
5:53 PM 88.0 °F 91.4 °F 68.0 °F 51% 29.92 in 9.0 mi SSE 6.9 mph - N/A   Clear
6:53 PM 84.0 °F 89.0 °F 71.1 °F 65% 29.96 in 9.0 mi ENE 27.6 mph 38.0 mph N/A   Overcast
7:53 PM 80.1 °F 82.9 °F 69.1 °F 69% 29.97 in 10.0 mi NNE 21.9 mph - N/A   Mostly Cloudy
8:53 PM 78.8 °F - 69.8 °F 74% 29.98 in 10.0 mi NE 9.2 mph - N/A   Clear
9:53 PM 79.0 °F - 71.1 °F 77% 29.95 in 10.0 mi ESE 6.9 mph - N/A   Clear
10:53 PM 80.1 °F 84.5 °F 73.9 °F 81% 29.98 in 10.0 mi NE 6.9 mph - N/A   Clear